Weather History for KMQS - May, 2013

Change the Weather History Date:

Sunday, May 12, 2013

  Actual Average (KLNS) Record (KLNS)
Temperature  
Mean Temperature 52 °F -  
Max Temperature 62 °F 73 °F 88 °F (1993)
Min Temperature 42 °F 50 °F 34 °F (1949)
Degree Days  
Heating Degree Days 13    
Growing Degree Days 2 (Base 50)    
Moisture  
Dew Point 40 °F    
Average Humidity 56    
Maximum Humidity 88    
Minimum Humidity 31    
Precipitation  
Precipitation 0.02 in - - ()
Sea Level Pressure  
Sea Level Pressure 29.84 in    
Wind  
Wind Speed 11 mph (WNW)    
Max Wind Speed 28 mph    
Max Gust Speed 32 mph    
Visibility 10 miles    
Events Rain    
Averages and records for this station are not official NWS values.
T = Trace of Precipitation, MM = Missing Value Source: NWS Daily Summary

Daily Weather History Graph

Daily Weather History Graph

Search for Another Location

Airport or City:

Trip Planner

Search our weather history database for the weather conditions in past years. The results will help you decide how hot, cold, wet, or windy it might be!

Date:

Astronomy

May. 12, 2013 Rise Set
Actual Time 5:50 AM EDT 8:09 PM EDT
Civil Twilight 5:20 AM EDT 8:39 PM EDT
Nautical Twilight 4:43 AM EDT 9:17 PM EDT
Astronomical Twilight 4:02 AM EDT 9:58 PM EDT
Moon 7:44 AM EDT (5/12) 10:34 PM EDT (5/12)
Length of Visible Light 15h 19m
Length of Day
14h 18m
Waxing Crescent, 6% of the Moon is Illuminated
May 12
Waxing Crescent
May 18
First Quarter
May 25
Full
May 31
Last Quarter
Jun 8
New

Hourly Weather History & Observations

Time (EDT) Temp. Windchill Dew Point Humidity Pressure Visibility Wind Dir Wind Speed Gust Speed Precip Events Conditions
12:15 AM 62.6 °F - 57.2 °F 82% 29.78 in 10.0 mi NW 8.1 mph - N/A   Mostly Cloudy
12:35 AM 60.8 °F - 57.2 °F 88% 29.77 in 5.0 mi NW 6.9 mph - 0.01 in Rain Light Rain
12:55 AM 60.8 °F - 57.2 °F 88% 29.77 in 10.0 mi NW 8.1 mph - 0.02 in   Overcast
1:15 AM 60.8 °F - 55.4 °F 82% 29.78 in 10.0 mi WNW 8.1 mph - N/A   Overcast
1:35 AM 60.8 °F - 53.6 °F 77% 29.77 in 10.0 mi NW 5.8 mph - N/A   Overcast
1:55 AM 60.8 °F - 53.6 °F 77% 29.76 in 10.0 mi NW 5.8 mph - N/A   Overcast
2:15 AM 59.0 °F - 53.6 °F 82% 29.76 in 10.0 mi WNW 6.9 mph - N/A   Mostly Cloudy
2:35 AM 57.2 °F - 53.6 °F 88% 29.76 in 9.0 mi WNW 4.6 mph - N/A   Mostly Cloudy
2:55 AM 59.0 °F - 53.6 °F 82% 29.76 in 10.0 mi WNW 6.9 mph - N/A   Mostly Cloudy
3:15 AM 57.2 °F - 53.6 °F 88% 29.75 in 10.0 mi NW 9.2 mph - N/A   Mostly Cloudy
3:35 AM 57.2 °F - 53.6 °F 88% 29.76 in 10.0 mi NW 8.1 mph - N/A   Scattered Clouds
3:55 AM 57.2 °F - 51.8 °F 82% 29.75 in 10.0 mi NW 9.2 mph - N/A   Partly Cloudy
4:15 AM 57.2 °F - 51.8 °F 82% 29.75 in 10.0 mi NW 10.4 mph - N/A   Partly Cloudy
4:35 AM 57.2 °F - 50.0 °F 77% 29.75 in 10.0 mi NW 12.7 mph - N/A Rain Light Rain
5:15 AM 55.4 °F - 48.2 °F 77% 29.77 in 10.0 mi NW 12.7 mph - N/A   Clear
5:35 AM 55.4 °F - 46.4 °F 72% 29.77 in 10.0 mi NW 10.4 mph - N/A   Partly Cloudy
5:55 AM 53.6 °F - 46.4 °F 77% 29.78 in 10.0 mi NW 10.4 mph - N/A   Partly Cloudy
6:15 AM 53.6 °F - 46.4 °F 77% 29.78 in 10.0 mi NW 6.9 mph - N/A   Clear
6:35 AM 51.8 °F - 46.4 °F 82% 29.79 in 10.0 mi NW 5.8 mph - N/A   Clear
6:55 AM 53.6 °F - 46.4 °F 77% 29.79 in 10.0 mi WNW 4.6 mph - N/A   Clear
7:15 AM 53.6 °F - 46.4 °F 77% 29.78 in 10.0 mi WNW 8.1 mph - N/A   Clear
7:35 AM 57.2 °F - 46.4 °F 67% 29.78 in 10.0 mi WNW 8.1 mph - N/A   Clear
7:55 AM 57.2 °F - 46.4 °F 67% 29.78 in 10.0 mi WNW 6.9 mph - N/A   Clear
8:15 AM 57.2 °F - 46.4 °F 67% 29.78 in 10.0 mi WNW 11.5 mph - N/A   Clear
8:35 AM 57.2 °F - 48.2 °F 72% 29.79 in 10.0 mi WNW 12.7 mph 20.7 mph N/A   Partly Cloudy
8:55 AM 59.0 °F - 48.2 °F 67% 29.79 in 10.0 mi NW 15.0 mph 23.0 mph N/A   Partly Cloudy
9:15 AM 59.0 °F - 46.4 °F 63% 29.80 in 10.0 mi NW 16.1 mph 24.2 mph N/A   Partly Cloudy
9:35 AM 59.0 °F - 46.4 °F 63% 29.80 in 10.0 mi WNW 13.8 mph 23.0 mph N/A   Partly Cloudy
9:55 AM 60.8 °F - 46.4 °F 59% 29.80 in 10.0 mi WNW 17.3 mph 20.7 mph N/A   Clear
10:15 AM 60.8 °F - 44.6 °F 55% 29.80 in 10.0 mi WNW 19.6 mph 24.2 mph N/A   Clear
10:35 AM 60.8 °F - 44.6 °F 55% 29.81 in 10.0 mi WNW 15.0 mph 23.0 mph N/A   Partly Cloudy
10:55 AM 59.0 °F - 42.8 °F 55% 29.82 in 10.0 mi NW 20.7 mph 26.5 mph N/A   Scattered Clouds
11:15 AM 60.8 °F - 41.0 °F 48% 29.82 in 10.0 mi WNW 17.3 mph 26.5 mph N/A   Mostly Cloudy
11:35 AM 59.0 °F - 35.6 °F 42% 29.83 in 10.0 mi WNW 27.6 mph 32.2 mph N/A   Partly Cloudy
11:55 AM 59.0 °F - 32.0 °F 36% 29.84 in 10.0 mi WNW 17.3 mph 31.1 mph N/A   Clear
12:15 PM 59.0 °F - 32.0 °F 36% 29.84 in 10.0 mi WNW 20.7 mph 26.5 mph N/A   Clear
12:35 PM 59.0 °F - 32.0 °F 36% 29.83 in 10.0 mi West 15.0 mph 23.0 mph N/A   Clear
12:55 PM 59.0 °F - 30.2 °F 34% 29.84 in 10.0 mi WNW 16.1 mph 27.6 mph N/A   Clear
1:15 PM 59.0 °F - 30.2 °F 34% 29.84 in 10.0 mi WNW 19.6 mph 26.5 mph N/A   Clear
1:35 PM 60.8 °F - 32.0 °F 34% 29.84 in 10.0 mi West 18.4 mph 26.5 mph N/A   Clear
1:55 PM 59.0 °F - 30.2 °F 34% 29.84 in 10.0 mi West 19.6 mph 26.5 mph N/A   Clear
2:15 PM 60.8 °F - 32.0 °F 34% 29.85 in 10.0 mi WNW 23.0 mph 27.6 mph N/A   Clear
2:35 PM 59.0 °F - 32.0 °F 36% 29.85 in 10.0 mi West 12.7 mph 24.2 mph N/A   Clear
2:55 PM 59.0 °F - 32.0 °F 36% 29.86 in 10.0 mi NW 20.7 mph 26.5 mph N/A   Clear
3:15 PM 57.2 °F - 32.0 °F 38% 29.85 in 10.0 mi WNW 18.4 mph 25.3 mph N/A   Partly Cloudy
3:35 PM 60.8 °F - 33.8 °F 36% 29.86 in 10.0 mi WNW 17.3 mph 20.7 mph N/A   Partly Cloudy
3:55 PM 59.0 °F - 32.0 °F 36% 29.85 in 10.0 mi NW 13.8 mph 24.2 mph N/A   Scattered Clouds
4:15 PM 60.8 °F - 32.0 °F 34% 29.85 in 10.0 mi NW 17.3 mph 24.2 mph N/A   Scattered Clouds
4:35 PM 60.8 °F - 32.0 °F 34% 29.86 in 10.0 mi NW 20.7 mph 28.8 mph N/A   Partly Cloudy
4:55 PM 57.2 °F - 32.0 °F 38% 29.86 in 10.0 mi WNW 17.3 mph 24.2 mph N/A   Partly Cloudy
5:15 PM 59.0 °F - 32.0 °F 36% 29.87 in 10.0 mi NW 19.6 mph 25.3 mph N/A   Mostly Cloudy
5:35 PM 57.2 °F - 30.2 °F 36% 29.87 in 10.0 mi NW 19.6 mph 27.6 mph N/A   Scattered Clouds
5:55 PM 59.0 °F - 30.2 °F 34% 29.88 in 10.0 mi WNW 25.3 mph 31.1 mph N/A   Scattered Clouds
6:15 PM 57.2 °F - 28.4 °F 33% 29.88 in 10.0 mi WNW 20.7 mph 25.3 mph N/A   Scattered Clouds
6:35 PM 57.2 °F - 26.6 °F 31% 29.89 in 10.0 mi West 20.7 mph - N/A   Partly Cloudy
6:55 PM 55.4 °F - 28.4 °F 36% 29.89 in 10.0 mi WNW 15.0 mph - N/A   Clear
7:15 PM 55.4 °F - 26.6 °F 33% 29.90 in 10.0 mi WNW 17.3 mph 23.0 mph N/A   Clear
7:35 PM 55.4 °F - 28.4 °F 36% 29.91 in 10.0 mi WNW 11.5 mph - N/A   Clear
7:55 PM 53.6 °F - 30.2 °F 41% 29.91 in 10.0 mi WNW 11.5 mph - N/A   Partly Cloudy
8:15 PM 51.8 °F - 30.2 °F 44% 29.92 in 10.0 mi West 11.5 mph - N/A   Clear
8:35 PM 51.8 °F - 30.2 °F 44% 29.93 in 10.0 mi West 6.9 mph - N/A   Clear
8:55 PM 51.8 °F - 30.2 °F 44% 29.93 in 10.0 mi West 8.1 mph - N/A   Clear
9:15 PM 50.0 °F - 30.2 °F 47% 29.95 in 10.0 mi WNW 10.4 mph - N/A   Clear
9:35 PM 50.0 °F - 30.2 °F 47% 29.96 in 10.0 mi WNW 11.5 mph - N/A   Clear
9:55 PM 48.2 °F - 30.2 °F 50% 29.97 in 10.0 mi WNW 9.2 mph - N/A   Clear
10:15 PM 48.2 °F - 30.2 °F 50% 29.98 in 10.0 mi WNW 9.2 mph - N/A   Clear
10:35 PM 48.2 °F - 30.2 °F 50% 29.99 in 10.0 mi WNW 8.1 mph - N/A   Clear
10:55 PM 44.6 °F 40.2 °F 32.0 °F 61% 30.00 in 10.0 mi WNW 8.1 mph - N/A   Clear
11:15 PM 46.4 °F 43.5 °F 32.0 °F 57% 30.00 in 10.0 mi West 5.8 mph - N/A   Clear
11:35 PM 42.8 °F 39.3 °F 32.0 °F 66% 30.01 in 10.0 mi West 5.8 mph - N/A   Clear
11:55 PM 44.6 °F 41.4 °F 32.0 °F 61% 30.01 in 10.0 mi WNW 5.8 mph - N/A   Clear